TimePDT,TemperatureF,Dew PointF,Humidity,Sea Level PressureIn,VisibilityMPH,Wind Direction,Wind SpeedMPH,Gust SpeedMPH,PrecipitationIn,Events,Conditions,WindDirDegrees,DateUTC
12:05 AM,50.0,46.4,87,30.05,0.2,Calm,Calm,-,N/A,Fog,Fog,0,2013-05-25 07:05:00
12:17 AM,50.0,46.4,87,30.05,0.5,Calm,Calm,-,N/A,Fog,Fog,0,2013-05-25 07:17:00
12:27 AM,51.8,46.4,82,30.05,1.0,Calm,Calm,-,N/A,,Overcast,0,2013-05-25 07:27:00
12:31 AM,51.8,46.4,82,30.05,2.0,Calm,Calm,-,N/A,,Overcast,0,2013-05-25 07:31:00
12:37 AM,50.0,46.4,87,30.05,1.2,Calm,Calm,-,N/A,,Overcast,0,2013-05-25 07:37:00
12:49 AM,51.8,46.4,82,30.05,2.0,Calm,Calm,-,N/A,,Overcast,0,2013-05-25 07:49:00
12:53 AM,50.0,46.9,89,30.05,2.5,Calm,Calm,-,N/A,,Overcast,0,2013-05-25 07:53:00
12:58 AM,50.0,46.4,87,30.05,3.0,Calm,Calm,-,N/A,,Overcast,0,2013-05-25 07:58:00
1:08 AM,50.0,46.4,87,30.05,5.0,Calm,Calm,-,N/A,,Overcast,0,2013-05-25 08:08:00
1:16 AM,50.0,46.4,87,30.04,3.0,Calm,Calm,-,N/A,,Overcast,0,2013-05-25 08:16:00
1:24 AM,50.0,46.4,87,30.04,1.8,Calm,Calm,-,N/A,,Overcast,0,2013-05-25 08:24:00
1:32 AM,50.0,46.4,87,30.04,0.8,Calm,Calm,-,N/A,,Overcast,0,2013-05-25 08:32:00
1:40 AM,50.0,46.4,87,30.04,0.5,Calm,Calm,-,N/A,Fog,Fog,0,2013-05-25 08:40:00
1:53 AM,50.0,46.9,89,30.04,0.5,Calm,Calm,-,N/A,Fog,Fog,0,2013-05-25 08:53:00
2:02 AM,50.0,46.4,87,30.04,0.2,Calm,Calm,-,N/A,Fog,Fog,0,2013-05-25 09:02:00
2:16 AM,50.0,46.4,87,30.03,0.2,Calm,Calm,-,N/A,Fog,Fog,0,2013-05-25 09:16:00
2:34 AM,50.0,46.4,87,30.03,0.5,Calm,Calm,-,N/A,Fog,Fog,0,2013-05-25 09:34:00
2:53 AM,50.0,46.0,86,30.03,1.0,Calm,Calm,-,N/A,,Overcast,0,2013-05-25 09:53:00
3:14 AM,50.0,46.4,87,30.03,0.5,Calm,Calm,-,N/A,Fog,Fog,0,2013-05-25 10:14:00
3:22 AM,50.0,46.4,87,30.03,1.5,Calm,Calm,-,N/A,,Overcast,0,2013-05-25 10:22:00
3:26 AM,50.0,46.4,87,30.03,3.0,Calm,Calm,-,N/A,,Overcast,0,2013-05-25 10:26:00
3:48 AM,50.0,46.4,87,30.03,5.0,Calm,Calm,-,N/A,,Overcast,0,2013-05-25 10:48:00
3:53 AM,50.0,46.0,86,30.03,4.0,Calm,Calm,-,N/A,,Overcast,0,2013-05-25 10:53:00
4:53 AM,48.9,46.0,90,30.02,6.0,Calm,Calm,-,0.00,Rain,Light Rain,0,2013-05-25 11:53:00
5:53 AM,50.0,46.0,86,30.02,5.0,Calm,Calm,-,0.02,Rain,Light Rain,0,2013-05-25 12:53:00
6:17 AM,50.0,46.4,87,30.02,2.5,Calm,Calm,-,0.01,Rain,Light Rain,0,2013-05-25 13:17:00
6:31 AM,50.0,46.4,87,30.02,3.0,Calm,Calm,-,0.02,Rain,Light Rain,0,2013-05-25 13:31:00
6:53 AM,50.0,46.0,86,30.02,4.0,East,3.5,-,0.02,Rain,Light Rain,90,2013-05-25 13:53:00
7:53 AM,51.1,46.9,86,30.03,6.0,Calm,Calm,-,0.01,,Overcast,0,2013-05-25 14:53:00
8:53 AM,53.1,48.0,83,30.02,7.0,East,3.5,-,0.00,,Overcast,100,2013-05-25 15:53:00
9:02 AM,53.6,48.2,82,30.02,7.0,Calm,Calm,-,N/A,,Overcast,0,2013-05-25 16:02:00
9:16 AM,53.6,48.2,82,30.02,8.0,East,3.5,-,N/A,,Overcast,80,2013-05-25 16:16:00
9:42 AM,53.6,48.2,82,30.01,7.0,Calm,Calm,-,N/A,,Overcast,0,2013-05-25 16:42:00
9:51 AM,53.6,48.2,82,30.02,8.0,Variable,3.5,-,N/A,,Overcast,0,2013-05-25 16:51:00
9:53 AM,54.0,48.9,83,30.02,8.0,Calm,Calm,-,N/A,,Overcast,0,2013-05-25 16:53:00
10:17 AM,53.6,48.2,82,30.02,7.0,SE,3.5,-,0.00,Rain,Light Rain,130,2013-05-25 17:17:00
10:53 AM,55.0,48.9,80,30.02,7.0,Variable,3.5,-,0.00,Rain,Light Rain,0,2013-05-25 17:53:00
11:27 AM,55.4,48.2,77,30.02,7.0,Variable,4.6,-,0.00,,Overcast,0,2013-05-25 18:27:00
11:53 AM,54.0,48.0,80,30.02,5.0,Variable,4.6,-,0.00,Rain,Light Rain,0,2013-05-25 18:53:00
12:25 PM,53.6,48.2,82,30.02,8.0,SSE,3.5,-,0.01,,Overcast,150,2013-05-25 19:25:00
12:53 PM,54.0,46.9,77,30.03,8.0,SSE,6.9,-,0.01,,Overcast,150,2013-05-25 19:53:00
1:03 PM,55.4,46.4,72,30.02,8.0,SSE,4.6,-,N/A,,Overcast,150,2013-05-25 20:03:00
1:53 PM,55.0,46.9,74,30.03,4.0,SSE,4.6,-,0.00,Rain,Light Rain,160,2013-05-25 20:53:00
2:28 PM,55.4,48.2,77,30.03,5.0,ESE,4.6,-,0.00,,Haze,120,2013-05-25 21:28:00
2:53 PM,55.0,48.9,80,30.02,7.0,Variable,3.5,-,0.00,,Overcast,0,2013-05-25 21:53:00
3:45 PM,53.6,48.2,82,30.03,6.0,Variable,5.8,-,0.00,,Haze,0,2013-05-25 22:45:00
3:53 PM,54.0,48.0,80,30.03,5.0,Variable,3.5,-,0.00,Rain,Light Rain,0,2013-05-25 22:53:00
4:24 PM,55.4,48.2,77,30.02,5.0,South,3.5,-,0.00,Rain,Light Rain,190,2013-05-25 23:24:00
4:53 PM,55.0,48.9,80,30.02,7.0,Variable,3.5,-,0.00,,Overcast,0,2013-05-25 23:53:00
5:16 PM,55.4,48.2,77,30.02,7.0,Variable,5.8,-,N/A,,Overcast,0,2013-05-26 00:16:00
5:38 PM,55.4,48.2,77,30.01,4.0,Calm,Calm,-,0.00,Rain,Light Rain,0,2013-05-26 00:38:00
5:45 PM,53.6,48.2,82,30.01,3.0,Variable,3.5,-,0.00,Rain,Light Rain,0,2013-05-26 00:45:00
5:53 PM,54.0,48.9,83,30.02,3.0,Variable,3.5,-,0.01,Rain,Light Rain,0,2013-05-26 00:53:00
6:05 PM,53.6,48.2,82,30.01,3.0,Calm,Calm,-,0.00,Rain,Light Rain,0,2013-05-26 01:05:00
6:14 PM,53.6,48.2,82,30.01,3.0,Calm,Calm,-,0.01,Rain,Light Rain,0,2013-05-26 01:14:00
6:23 PM,53.6,48.2,82,30.01,3.0,SE,3.5,-,0.01,Rain,Light Rain,140,2013-05-26 01:23:00
6:45 PM,53.6,50.0,88,30.01,4.0,SSE,3.5,-,0.01,Rain,Light Rain,150,2013-05-26 01:45:00
6:53 PM,54.0,50.0,86,30.01,4.0,SSE,3.5,-,0.01,Rain,Light Rain,160,2013-05-26 01:53:00
7:12 PM,53.6,50.0,88,30.00,3.0,Calm,Calm,-,0.00,Rain,Light Rain,0,2013-05-26 02:12:00
7:21 PM,53.6,50.0,88,30.00,3.0,Calm,Calm,-,0.01,,Overcast,0,2013-05-26 02:21:00
7:48 PM,53.6,50.0,88,30.00,6.0,Calm,Calm,-,0.01,,Overcast,0,2013-05-26 02:48:00
7:53 PM,55.0,50.0,83,30.00,7.0,Calm,Calm,-,0.01,,Overcast,0,2013-05-26 02:53:00
8:53 PM,54.0,50.0,86,29.99,8.0,Calm,Calm,-,N/A,,Overcast,0,2013-05-26 03:53:00
9:44 PM,53.6,50.0,88,29.99,9.0,NE,3.5,-,N/A,,Overcast,40,2013-05-26 04:44:00
9:53 PM,54.0,50.0,86,29.99,9.0,NE,3.5,-,N/A,,Overcast,50,2013-05-26 04:53:00
10:53 PM,53.1,48.9,86,29.99,9.0,Calm,Calm,-,N/A,,Overcast,0,2013-05-26 05:53:00
11:53 PM,53.1,48.9,86,29.97,8.0,Calm,Calm,-,N/A,,Overcast,0,2013-05-26 06:53:00